| time (UTC) | temp C | wind direction | speed KPH | gust KPH | rain 1hr cm | rain 24hr cm | rain mn cm | humidity % | barometer mb |
| 20260504003504 | 20 | 20 | 20.9 | 0.0 | 0.00 | 0.00 | 0.00 | 65 | 1014.0 |
| 20260504002503 | 20 | 20 | 20.9 | 0.0 | 0.00 | 0.00 | 0.00 | 49 | 1014.0 |
| 20260504001503 | 20 | 20 | 20.9 | 0.0 | 0.00 | 0.00 | 0.00 | 48 | 1014.0 |
| 20260504000502 | 20 | 20 | 20.9 | 0.0 | 0.00 | 0.00 | 0.00 | 49 | 1014.0 |
| 20260503235501 | 20 | 20 | 20.9 | 0.0 | 0.00 | 0.00 | 0.00 | 48 | 1014.0 |
| 20260503234501 | 20 | 20 | 20.9 | 0.0 | 0.00 | 0.00 | 0.00 | 47 | 1014.0 |
| 20260503233500 | 21 | 20 | 20.9 | 0.0 | 0.00 | 0.00 | 0.00 | 46 | 1014.0 |
| 20260503232500 | 21 | 20 | 20.9 | 0.0 | 0.00 | 0.00 | 0.00 | 46 | 1014.0 |
| 20260503231459 | 21 | 20 | 20.9 | 0.0 | 0.00 | 0.00 | 0.00 | 45 | 1014.0 |
| 20260503230458 | 21 | 20 | 20.9 | 0.0 | 0.00 | 0.00 | 0.00 | 45 | 1014.0 |
| 20260503225458 | 21 | 20 | 20.9 | 0.0 | 0.00 | 0.00 | 0.00 | 45 | 1014.0 |
| 20260503224458 | 21 | 20 | 20.9 | 0.0 | 0.00 | 0.00 | 0.00 | 44 | 1014.0 |
| 20260503223457 | 21 | 20 | 20.9 | 0.0 | 0.00 | 0.00 | 0.00 | 45 | 1014.0 |
| 20260503222456 | 21 | 20 | 20.9 | 0.0 | 0.00 | 0.00 | 0.00 | 45 | 1014.0 |
| 20260503221455 | 21 | 20 | 20.9 | 0.0 | 0.00 | 0.00 | 0.00 | 45 | 1014.0 |
| 20260503220454 | 21 | 30 | 17.7 | 0.0 | 0.00 | 0.00 | 0.00 | 45 | 1014.0 |
| 20260503215454 | 21 | 30 | 17.7 | 0.0 | 0.00 | 0.00 | 0.00 | 44 | 1014.0 |
| 20260503214453 | 21 | 30 | 17.7 | 0.0 | 0.00 | 0.00 | 0.00 | 44 | 1014.0 |
| 20260503213453 | 21 | 30 | 17.7 | 0.0 | 0.00 | 0.00 | 0.00 | 44 | 1014.0 |
| 20260503212452 | 21 | 30 | 17.7 | 0.0 | 0.00 | 0.00 | 0.00 | 45 | 1015.0 |
| 20260503211452 | 21 | 30 | 17.7 | 0.0 | 0.00 | 0.00 | 0.00 | 46 | 1015.0 |
| 20260503210451 | 21 | 30 | 17.7 | 0.0 | 0.00 | 0.00 | 0.00 | 47 | 1015.0 |
| 20260503205450 | 21 | 20 | 6.4 | 17.7 | 0.00 | 0.00 | 0.00 | 48 | 1015.0 |
| 20260503204450 | 20 | 10 | 12.9 | 0.0 | 0.00 | 0.00 | 0.00 | 49 | 1015.0 |
| 20260503203449 | 20 | 10 | 12.9 | 0.0 | 0.00 | 0.00 | 0.00 | 51 | 1015.0 |
| 20260503202448 | 20 | 10 | 12.9 | 0.0 | 0.00 | 0.00 | 0.00 | 52 | 1016.0 |
| 20260503201448 | 20 | 10 | 12.9 | 0.0 | 0.00 | 0.00 | 0.00 | 52 | 1016.0 |
| 20260503200447 | 19 | 27 | 1.6 | 12.9 | 0.00 | 0.00 | 0.00 | 54 | 1016.0 |
| 20260503195447 | 19 | 335 | 4.8 | 12.9 | 0.00 | 0.00 | 0.00 | 55 | 1016.0 |
| 20260503194446 | 19 | 10 | 12.9 | 0.0 | 0.00 | 0.00 | 0.00 | 64 | 1016.0 |
| 20260503193446 | 19 | 10 | 12.9 | 0.0 | 0.00 | 0.00 | 0.00 | 64 | 1016.0 |
| 20260503192445 | 18 | 10 | 12.9 | 0.0 | 0.00 | 0.00 | 0.00 | 56 | 1017.0 |
| 20260503191444 | 18 | 10 | 12.9 | 0.0 | 0.00 | 0.00 | 0.00 | 58 | 1017.0 |
| 20260503190444 | 18 | 10 | 12.9 | 0.0 | 0.00 | 0.00 | 0.00 | 94 | 1017.0 |
| 20260503185443 | 20 | 360 | 8.0 | 0.0 | 0.00 | 0.00 | 0.00 | 94 | 1017.0 |
| 20260503184442 | 21 | 360 | 8.0 | 0.0 | 0.00 | 0.00 | 0.00 | 94 | 1017.0 |
| 20260503183442 | 22 | 360 | 8.0 | 0.0 | 0.00 | 0.00 | 0.00 | 94 | 1018.0 |
| 20260503182441 | 23 | 360 | 8.0 | 0.0 | 0.00 | 0.00 | 0.00 | 94 | 1018.0 |
| 20260503181440 | 23 | 360 | 8.0 | 0.0 | 0.00 | 0.00 | 0.00 | 94 | 1018.0 |
| 20260503180440 | 23 | 360 | 8.0 | 0.0 | 0.00 | 0.00 | 0.00 | 94 | 1018.0 |
| 20260503175439 | 16 | 20 | 9.7 | 0.0 | 0.00 | 0.00 | 0.00 | 68 | 1018.0 |
| 20260503174439 | 16 | 20 | 9.7 | 0.0 | 0.00 | 0.00 | 0.00 | 68 | 1018.0 |
| 20260503173438 | 16 | 20 | 9.7 | 0.0 | 0.00 | 0.00 | 0.00 | 68 | 1018.0 |
| 20260503172437 | 16 | 20 | 9.7 | 0.0 | 0.00 | 0.00 | 0.00 | 10 | 1019.0 |
| 20260503171437 | 16 | 20 | 9.7 | 0.0 | 0.00 | 0.00 | 0.00 | 10 | 1018.0 |
| 20260503170436 | 16 | 20 | 17.7 | 0.0 | 0.00 | 0.00 | 0.00 | 10 | 1018.0 |
| 20260503150428 | 13 | 23 | 4.8 | 6.4 | 0.00 | 0.00 | 0.00 | 76 | 1021.0 |
| 20260503130421 | 10 | 30 | 24.1 | 0.0 | 0.00 | 0.00 | 0.00 | 73 | 1022.0 |
| 20260503110413 | 10 | 30 | 24.1 | 0.0 | 0.00 | 0.00 | 0.00 | 72 | 1020.0 |
| 20260503090405 | 10 | 30 | 24.1 | 0.0 | 0.00 | 0.00 | 0.00 | 72 | 1021.0 |
| 20260503081403 | 10 | 30 | 24.1 | 0.0 | 0.00 | 0.00 | 0.00 | 74 | 1021.0 |
| 20260503080402 | 10 | 30 | 24.1 | 0.0 | 0.00 | 0.00 | 0.00 | 74 | 1021.0 |
| 20260503072359 | 10 | 30 | 24.1 | 0.0 | 0.00 | 0.00 | 0.00 | 75 | 1022.0 |
| 20260503071359 | 10 | 30 | 24.1 | 0.0 | 0.00 | 0.00 | 0.00 | 75 | 1021.0 |
| 20260503070358 | 10 | 30 | 24.1 | 0.0 | 0.00 | 0.00 | 0.00 | 77 | 1021.0 |
| 20260503054353 | 11 | 30 | 24.1 | 0.0 | 0.00 | 0.00 | 0.00 | 78 | 1021.0 |
| 20260503053352 | 11 | 30 | 24.1 | 0.0 | 0.00 | 0.00 | 0.00 | 78 | 1021.0 |
| 20260503052352 | 11 | 30 | 24.1 | 0.0 | 0.00 | 0.00 | 0.00 | 78 | 1021.0 |
| 20260503051351 | 11 | 30 | 24.1 | 0.0 | 0.00 | 0.00 | 0.00 | 79 | 1021.0 |
| 20260503050350 | 11 | 30 | 24.1 | 0.0 | 0.00 | 0.00 | 0.00 | 79 | 1021.0 |
| 20260503045350 | 11 | 30 | 24.1 | 0.0 | 0.00 | 0.00 | 0.00 | 78 | 1021.0 |
| 20260503044350 | 11 | 30 | 24.1 | 0.0 | 0.00 | 0.00 | 0.00 | 78 | 1021.0 |
| 20260503043349 | 11 | 30 | 24.1 | 0.0 | 0.00 | 0.00 | 0.00 | 78 | 1021.0 |
| 20260503042348 | 11 | 30 | 24.1 | 0.0 | 0.00 | 0.00 | 0.00 | 78 | 1021.0 |
| 20260503041348 | 11 | 30 | 24.1 | 0.0 | 0.00 | 0.00 | 0.00 | 78 | 1021.0 |
| 20260503040347 | 11 | 30 | 24.1 | 0.0 | 0.00 | 0.00 | 0.00 | 78 | 1021.0 |
| 20260503035347 | 11 | 30 | 24.1 | 0.0 | 0.00 | 0.00 | 0.00 | 78 | 1021.0 |
| 20260503034346 | 11 | 30 | 24.1 | 0.0 | 0.00 | 0.00 | 0.00 | 85 | 1021.0 |
| 20260503033345 | 11 | 30 | 24.1 | 0.0 | 0.00 | 0.00 | 0.00 | 85 | 1021.0 |
| 20260503032345 | 11 | 30 | 24.1 | 0.0 | 0.00 | 0.00 | 0.00 | 85 | 1022.0 |
| 20260503031344 | 11 | 30 | 24.1 | 0.0 | 0.00 | 0.00 | 0.00 | 84 | 1021.0 |
| 20260503030344 | 11 | 30 | 24.1 | 0.0 | 0.00 | 0.00 | 0.00 | 78 | 1021.0 |
| 20260503025343 | 11 | 30 | 24.1 | 0.0 | 0.00 | 0.00 | 0.00 | 79 | 1021.0 |
| 20260503024342 | 11 | 30 | 24.1 | 0.0 | 0.00 | 0.00 | 0.00 | 85 | 1021.0 |
| 20260503023342 | 11 | 30 | 24.1 | 0.0 | 0.00 | 0.00 | 0.00 | 85 | 1021.0 |
| 20260503022341 | 11 | 30 | 24.1 | 0.0 | 0.00 | 0.00 | 0.00 | 85 | 1021.0 |
| 20260503021340 | 11 | 30 | 24.1 | 0.0 | 0.00 | 0.00 | 0.00 | 84 | 1020.0 |
| 20260503020340 | 11 | 30 | 24.1 | 0.0 | 0.00 | 0.00 | 0.00 | 78 | 1020.0 |
| 20260503015339 | 11 | 30 | 24.1 | 0.0 | 0.00 | 0.00 | 0.00 | 78 | 1020.0 |
| 20260503014339 | 11 | 30 | 24.1 | 0.0 | 0.00 | 0.00 | 0.00 | 78 | 1020.0 |
| 20260503013338 | 11 | 30 | 25.7 | 0.0 | 0.00 | 0.00 | 0.00 | 85 | 1019.0 |
| 20260503012337 | 11 | 30 | 25.7 | 0.0 | 0.00 | 0.00 | 0.00 | 85 | 1019.0 |
| 20260503011337 | 12 | 30 | 25.7 | 0.0 | 0.00 | 0.00 | 0.00 | 83 | 1018.0 |
| 20260503010336 | 12 | 50 | 17.7 | 0.0 | 0.00 | 0.00 | 0.00 | 77 | 1018.0 |
| 20260503005335 | 12 | 50 | 17.7 | 0.0 | 0.00 | 0.00 | 0.00 | 77 | 1018.0 |
| 20260503004335 | 12 | 50 | 17.7 | 0.0 | 0.00 | 0.00 | 0.00 | 85 | 1018.0 |